Home > Weather > Madaba > Past weeks

Flag for Jordan Weather for the Past 2 Weeks in Madaba, Jordan

Now
50 °F

Clear.


Feels Like: 48 °F
Forecast: 57 / 70 °F
Wind: 5 mph from Southeast

Location: Queen Alia Airport

Current Time: May 5, 2016 at 7:01:16 AM

Latest Report: May 5, 2016 at 6:00 AM


Visibility: 4 mi

Pressure: 29.98 "Hg (27.26 "Hg at 788m altitude)

Humidity: 71%

Dew Point: 41 °F

Location of MadabaLocation

Historic Weather in Madaba — Graph

°F

Madaba Temperature Yesterday

Maximum temperature yesterday: 75 °F (at 2:00 PM)
Minimum temperature yesterday: 57 °F (at 11:00 PM)
Average temperature yesterday: 67 °F

High & Low Weather Summary for the Past Weeks

 TemperatureHumidityPressure
High93 °F (Apr 26, 3:00 PM)87% (Apr 28, 3:00 AM)30.12 "Hg (Apr 28, 3:00 AM)
Low41 °F (Apr 29, 6:00 AM)6% (Apr 20, 4:00 PM)29.77 "Hg (Apr 25, 6:00 AM)
Average71 °F35%29.97 "Hg
* Reported Apr 20 6:00 AM — May 5 6:00 AM, Madaba, Weather by CustomWeather, © 2016

Note: Actual official high and low records may vary slightly from our data, if they occured in-between our weather recording intervals... More about our weather records

Advertising

Madaba Weather History for the Previous 24 Hours

Scroll right to see more
 ConditionsComfort  
Time TempWeatherWind HumidityBarometerVisibility
6:00 AM
Thu, May 5
50 °FClear.5 mph71%29.98 "Hg4 mi
4:00 AM54 °FClear.5 mph67%29.98 "Hg5 mi
3:00 AM54 °FClear.5 mph67%29.98 "Hg5 mi
1:00 AM55 °FClear.No wind67%30.01 "Hg5 mi
12:00 AM57 °FClear.7 mph67%30.01 "Hg5 mi
11:00 PM
Wed, May 4
57 °FClear.5 mph67%30.01 "Hg5 mi
10:00 PM59 °FClear.No wind63%30.04 "Hg5 mi
9:00 PM59 °FClear.9 mph59%30.04 "Hg5 mi
8:00 PM63 °FClear.18 mph52%30.01 "Hg4 mi
7:00 PM66 °FClear.18 mph46%30.01 "Hg4 mi
6:00 PM68 °FClear.18 mph35%30.01 "Hg4 mi
5:00 PM70 °FClear.23 mph38%29.98 "Hg4 mi
4:00 PM72 °FClear.18 mph33%29.98 "Hg4 mi
3:00 PM73 °FClear.23 mph29%29.98 "Hg4 mi
2:00 PM75 °FClear.25 mph29%29.98 "Hg4 mi
1:00 PM72 °FClear.25 mph41%30.01 "Hg4 mi
12:00 PM70 °FClear.23 mph57%30.01 "Hg4 mi
11:00 AM70 °FClear.18 mph60%30.01 "Hg4 mi
10:00 AM68 °FClear.17 mph60%29.98 "Hg4 mi
8:00 AM64 °FClear.15 mph49%29.92 "Hg4 mi
7:00 AM64 °FClear.14 mph49%29.92 "Hg4 mi
Weather by CustomWeather, © 2016

See weather overviewHow to use our weather pages